Temperature
14 14 14 15 19 21 21 22 21 20 20 19 18 20 21 21 21 20 14 14 14 14 14 15 15 15 15 16 16 16 16 16 16 16 16 16 16 16 17 17 17 17 16 16 16 16 16 16 16
14 14 14 17 20 21 22 21 20 20 19 17 17 18 19 18 16 14 13 14 14 14 14 14 15 15 15 15 16 16 16 16 16 16 16 16 16 16 16 16 16 16 16 16 16 16 16 16 16
13 14 16 19 20 22 22 21 21 18 17 17 17 17 18 17 14 13 13 13 13 13 13 14 15 15 15 15 15 15 16 16 16 16 16 16 16 16 16 16 16 16 16 16 16 16 16 16 16
13 15 17 19 20 20 20 20 19 18 17 16 17 17 15 13 13 13 13 13 13 13 13 14 14 14 15 15 15 15 15 15 15 15 15 15 15 15 15 15 15 15 16 16 16 16 16 16 16
13 17 18 19 19 19 19 18 18 19 19 17 17 18 16 13 13 13 13 13 13 13 13 14 14 14 14 14 15 15 15 15 15 15 15 15 15 15 15 15 15 15 15 15 15 15 15 15 15
15 17 19 19 20 19 19 17 17 19 18 17 17 18 15 13 12 13 13 12 13 13 13 13 14 14 14 14 14 14 14 14 14 14 15 15 15 15 15 15 15 15 15 15 15 15 15 15 15
16 17 19 19 19 19 18 17 18 19 18 17 17 18 15 12 12 12 12 12 12 12 13 13 13 13 13 13 14 14 14 14 14 14 14 14 14 14 14 14 14 14 14 15 15 15 15 15 15
15 17 18 18 18 19 17 16 16 17 18 15 15 18 16 13 12 12 12 12 12 12 12 12 13 13 13 13 13 13 13 13 13 14 14 14 14 14 14 14 14 14 14 14 14 14 14 14 14
14 17 18 18 18 18 16 16 15 14 15 14 14 15 14 12 12 12 12 12 12 12 12 12 12 12 12 12 12 12 13 13 13 13 13 13 13 13 13 13 13 14 14 14 14 14 14 14 14
15 16 17 17 17 17 16 16 15 15 15 15 13 12 13 12 12 12 12 12 12 12 12 12 12 12 12 12 12 12 12 12 12 12 12 12 12 13 13 13 13 13 13 13 13 13 13 13 13
15 16 16 15 14 15 15 15 14 16 16 16 15 13 12 12 11 12 12 12 12 11 12 12 12 12 12 12 12 12 12 12 12 12 12 12 12 12 12 12 12 13 13 13 13 13 13 13 13
14 14 14 14 13 13 14 14 14 15 16 15 14 13 12 12 12 12 12 12 11 11 11 11 11 11 11 11 11 11 11 11 11 11 11 11 11 11 11 11 12 12 12 12 12 12 12 12 12
14 14 13 12 12 12 13 13 14 14 13 13 12 12 12 12 12 12 11 11 11 11 11 11 11 11 11 11 11 11 11 11 11 11 11 11 11 11 11 11 11 11 11 11 11 12 12 12 12
13 13 13 12 12 12 13 13 13 14 13 12 12 12 12 12 11 11 11 11 11 11 11 11 11 11 10 10 10 10 10 10 10 10 10 10 10 10 10 10 10 10 10 10 11 11 11 11 11
12 13 13 13 12 12 12 14 14 14 12 12 12 12 11 11 11 11 11 11 11 11 11 10 10 10 10 10 10 10 10 10 10 10 10 10 10 10 10 9 9 9 10 10 10 10 10 10 10
12 13 14 14 13 12 13 15 16 13 12 13 12 12 11 11 11 11 11 11 11 10 10 10 10 10 10 10 10 9 9 9 9 9 9 9 9 9 9 9 9 9 9 9 9 9 9 9 9
13 14 14 14 12 12 13 15 15 11 12 13 13 12 11 11 11 10 10 10 10 10 10 10 10 10 10 9 9 9 9 9 9 9 9 9 9 9 9 9 8 8 8 8 8 8 8 9 9
13 14 14 14 12 11 12 14 14 12 11 13 13 12 12 11 11 10 10 10 10 10 10 10 10 9 9 9 9 9 9 9 9 9 9 8 8 8 8 8 8 8 8 8 8 8 8 8 8
13 13 13 13 11 11 12 13 14 13 12 12 13 12 12 11 11 10 10 10 10 10 10 9 9 9 9 9 9 9 9 8 8 8 8 8 8 8 8 7 7 7 7 7 7 7 7 7 7
12 12 13 12 10 11 12 12 14 14 13 13 13 12 12 11 10 10 10 9 9 9 9 9 9 9 9 9 9 9 8 8 8 8 8 8 8 7 7 7 7 7 7 7 7 7 6 6 6
11 12 12 12 10 10 11 13 14 14 12 12 11 12 12 11 10 10 9 9 9 9 9 9 8 8 8 8 8 8 8 8 8 8 8 7 7 7 7 7 6 6 6 6 6 6 6 5 6
11 11 11 10 11 12 11 13 16 14 13 12 12 11 11 10 10 10 9 9 9 9 9 9 8 8 8 8 8 8 8 7 7 7 7 7 7 7 7 6 6 6 6 6 6 5 5 5 5
10 9 10 10 11 11 11 11 15 14 14 14 13 12 11 10 9 9 9 9 9 9 9 9 8 8 8 8 8 7 7 7 7 7 7 7 6 6 6 6 6 6 6 5 5 5 5 5 4
8 9 9 9 10 10 11 12 14 14 13 14 13 12 10 9 9 9 9 8 8 8 8 8 8 8 8 8 7 7 7 7 7 7 6 6 6 6 6 6 6 5 5 5 5 5 5 5 4
9 10 10 10 10 12 11 11 14 14 13 13 12 11 10 9 9 8 8 8 8 8 8 8 8 7 7 7 7 7 7 7 7 6 6 6 6 5 5 5 5 5 5 5 5 5 4 4 4
9 10 11 11 12 13 9 11 14 12 11 10 10 10 10 9 9 8 8 8 8 8 8 8 8 7 7 7 7 7 7 6 6 6 6 5 5 5 5 5 5 5 5 4 4 4 4 4 4
9 10 10 10 9 11 13 12 13 12 11 10 10 10 9 9 8 8 7 7 7 8 8 8 7 7 7 7 7 6 6 6 6 6 5 5 5 5 5 5 5 4 4 4 4 4 4 3 3
9 9 8 9 10 12 13 13 14 13 11 11 10 10 9 8 8 7 7 7 7 7 7 7 7 7 7 7 6 6 6 6 6 5 5 5 5 5 5 5 4 4 4 4 4 3 3 3 3
7 7 8 9 10 12 13 14 13 12 11 11 10 9 9 8 7 7 7 7 7 7 7 7 7 6 6 6 6 6 6 5 5 5 5 5 5 5 4 4 4 4 4 3 3 3 3 3 3
7 8 8 9 8 9 12 13 11 10 10 10 9 9 8 7 7 7 7 6 6 6 6 7 6 6 6 6 6 6 5 5 5 5 5 5 4 4 4 4 3 3 3 3 3 3 3 2 2
Wind_Speed
1 2 4 4 5 6 9 6 4 6 5 3 3 3 4 3 1 3 6 6 7 7 7 8 8 9 9 10 10 10 11 10 10 9 8 8 7 7 6 6 6 4 3 3 3 3 3 3 4
2 4 5 5 6 9 7 7 8 6 5 6 4 3 3 3 3 6 7 6 7 7 6 7 8 9 9 10 10 10 10 10 10 10 9 8 8 7 6 6 6 6 5 4 3 3 3 2 2
4 3 5 5 7 9 5 5 6 6 6 5 5 2 1 4 6 6 6 8 7 7 7 8 8 9 9 9 9 9 9 9 9 9 9 9 8 7 7 6 6 6 5 5 4 3 3 2 2
5 4 4 7 11 8 3 3 6 9 6 4 5 5 3 3 4 6 8 8 8 7 7 9 8 9 9 9 9 9 9 9 9 9 9 8 8 8 7 7 6 6 5 5 4 4 2 2 2
4 5 7 8 10 6 4 3 7 9 7 6 6 5 5 4 5 8 9 8 8 7 7 9 9 9 9 9 9 9 9 9 8 8 8 8 7 8 7 7 6 6 5 5 4 4 3 2 1
6 5 8 12 11 6 5 6 8 8 7 6 6 6 5 6 8 9 8 8 7 7 7 8 9 9 9 9 9 9 9 9 9 8 8 8 8 8 7 7 7 6 5 5 5 4 3 3 2
6 6 7 8 8 7 6 6 9 9 8 7 5 6 6 8 8 8 8 8 7 6 6 6 6 7 8 8 8 8 8 8 8 8 8 8 8 8 8 7 7 6 5 4 4 4 3 2 2
5 5 6 7 8 7 6 6 4 7 6 4 5 5 6 10 9 9 8 7 6 5 5 5 5 5 5 5 7 7 7 7 7 7 7 7 6 6 6 6 7 6 5 4 3 3 3 3 2
4 7 9 8 7 5 7 7 4 2 5 4 3 1 4 12 11 10 8 7 6 5 4 4 4 4 3 3 4 5 5 5 5 5 5 4 4 4 4 6 6 6 5 4 3 3 2 2 1
7 9 9 4 3 3 7 6 6 6 7 6 5 4 8 12 12 11 10 9 7 6 4 3 3 3 3 2 2 2 2 3 3 3 3 3 3 3 3 4 4 5 5 4 3 3 2 2 2
7 8 6 4 3 3 5 5 5 7 8 9 9 10 12 12 12 11 10 8 7 6 4 3 3 2 2 2 1 1 2 2 2 3 3 2 2 2 3 3 3 3 4 4 3 2 2 2 2
7 7 5 3 3 4 5 5 6 10 6 3 6 10 13 13 13 12 10 8 7 6 5 4 3 3 2 1 1 1 1 1 1 2 2 2 2 2 3 3 3 4 3 4 3 2 3 3 3
10 6 5 4 4 4 5 7 7 9 7 4 6 10 13 13 12 10 9 8 7 7 6 5 4 3 2 2 1 1 0 0 1 1 1 2 2 2 3 3 3 4 4 4 4 3 3 4 4
7 7 6 5 5 4 6 8 7 9 7 8 9 11 12 12 12 10 10 9 9 8 7 5 5 4 3 2 2 1 0 0 0 1 1 2 2 2 3 3 3 4 4 5 5 4 4 4 4
4 5 6 7 7 4 5 10 12 9 8 10 11 11 12 12 11 11 11 10 9 8 7 6 5 4 4 3 2 1 1 1 1 1 1 2 2 3 3 3 4 4 5 6 5 5 4 4 4
5 6 7 6 7 6 7 12 7 6 9 11 11 11 11 11 12 11 10 9 9 8 7 6 4 5 4 3 3 2 1 1 1 1 2 2 3 3 3 4 4 5 5 5 4 4 4 4 5
8 9 10 6 6 6 9 10 5 4 9 11 11 12 11 11 11 10 10 9 9 8 7 7 6 5 5 4 3 2 2 2 2 2 2 2 3 4 4 4 4 5 5 5 5 5 5 6 6
9 9 8 8 5 8 11 13 8 6 8 11 11 11 11 12 12 10 9 9 8 8 7 7 6 5 5 4 3 2 2 2 2 2 2 3 3 4 4 4 5 5 5 5 5 6 6 6 6
6 8 8 5 3 6 12 14 13 10 11 12 12 11 12 12 10 9 9 9 8 8 8 7 7 6 4 4 4 3 3 3 3 3 3 4 4 4 4 4 5 5 5 6 7 6 6 6 5
9 9 8 4 2 5 9 14 13 12 13 13 13 13 12 11 9 8 9 9 9 9 8 8 7 6 5 4 4 4 4 4 4 3 4 4 4 5 4 5 5 5 6 7 7 6 5 6 5
12 12 10 6 2 4 7 10 11 9 11 11 12 12 12 12 11 10 10 10 9 9 8 7 7 6 6 5 3 3 3 3 4 4 4 4 5 5 5 6 6 6 6 6 7 7 7 6 6
10 8 8 7 6 4 3 6 7 7 9 10 11 11 11 11 11 11 10 10 10 9 8 7 7 6 6 5 5 5 5 5 5 5 4 5 5 5 5 6 7 7 6 7 7 7 7 7 7
5 4 6 6 6 6 6 6 7 6 8 9 9 10 10 10 10 11 11 10 9 8 7 6 6 6 5 6 6 6 6 5 5 5 6 6 5 5 6 6 6 7 6 7 7 7 7 7 8
7 6 4 3 4 6 9 9 7 6 9 8 8 8 8 8 9 9 10 9 8 7 6 6 6 6 6 6 6 7 7 7 6 6 6 6 5 5 6 7 7 7 7 7 7 8 9 8 9
8 6 4 5 6 7 5 8 9 5 5 7 7 6 6 6 7 8 9 9 8 8 7 7 7 6 6 6 7 7 8 8 8 7 7 7 6 6 7 7 7 7 7 8 8 8 9 9 10
12 10 6 6 6 5 5 9 6 2 3 4 4 4 4 5 6 7 8 9 8 8 8 8 8 7 7 7 7 7 7 6 6 7 7 7 6 7 8 8 8 8 9 8 8 8 9 9 10
9 9 4 2 1 4 6 6 7 3 2 3 3 3 3 4 5 6 7 8 8 8 8 8 8 7 7 7 7 7 7 7 7 8 8 7 7 7 8 8 8 9 9 9 9 8 9 10 10
4 7 5 5 5 7 6 7 5 3 3 2 2 3 3 4 4 5 6 7 7 7 7 7 8 8 7 7 7 6 7 7 7 7 8 8 8 8 8 8 9 9 9 9 9 9 9 10 10
7 7 6 5 4 5 6 4 1 2 2 2 2 2 3 3 4 4 5 5 6 5 6 6 7 7 6 6 7 7 6 6 7 7 7 7 7 7 8 8 8 9 9 9 9 9 10 11 11
7 8 8 6 6 5 5 4 2 0 1 1 2 1 2 2 3 3 4 4 4 5 5 5 6 6 6 6 6 6 6 6 6 7 7 6 7 7 8 8 8 9 9 9 10 10 11 11 12
Wind_Direction
199 199 195 199 206 220 229 213 200 171 176 159 147 176 180 164 160 109 107 122 123 123 116 107 87 80 75 71 69 66 64 63 62 61 61 61 60 59 59 60 61 69 82 95 99 104 114 133 145
200 183 195 208 224 220 218 205 198 183 143 135 138 156 154 122 68 105 127 125 127 121 116 102 91 84 77 71 69 67 64 61 60 58 56 57 56 54 52 54 54 55 67 79 85 91 88 97 129
174 208 203 206 223 228 208 180 184 149 145 161 150 143 138 120 122 125 124 134 130 121 113 101 96 87 79 72 69 68 65 62 59 56 54 54 53 52 50 49 50 49 58 65 70 78 87 85 111
185 186 208 226 225 229 235 157 158 155 162 175 165 142 124 95 120 121 132 138 130 121 112 104 94 88 80 73 69 67 65 62 59 55 52 50 48 47 46 44 47 47 50 56 57 58 76 89 99
207 201 207 223 231 226 221 193 174 176 170 170 177 154 136 116 114 130 138 137 131 119 108 106 92 88 82 75 70 66 63 60 57 53 49 46 43 42 41 39 39 40 41 39 42 46 57 64 105
190 208 218 224 221 215 208 193 185 193 177 169 176 160 137 132 140 140 141 140 130 121 111 105 93 86 82 77 72 68 63 59 56 52 49 45 41 39 36 36 35 32 34 34 33 36 41 39 38
208 210 228 229 223 217 200 183 196 194 190 181 175 162 146 153 145 145 143 139 131 123 116 109 105 98 89 81 74 69 65 61 58 53 48 44 41 38 35 32 28 27 25 24 20 23 22 26 23
225 218 225 222 221 216 173 172 193 205 193 151 184 185 167 159 150 147 144 142 135 130 125 120 112 102 99 93 81 73 69 64 59 53 48 43 41 35 30 24 21 19 12 10 7 1 1 2 360
211 226 227 218 215 199 170 178 164 165 159 166 190 187 122 143 153 155 156 156 152 148 143 136 124 110 98 92 91 83 77 67 61 55 46 34 27 23 23 22 16 11 3 355 343 338 324 319 295
206 227 229 220 213 182 175 191 173 177 188 191 186 163 147 156 167 173 176 175 174 171 164 155 143 127 113 100 99 83 70 61 48 39 33 28 22 14 4 16 10 359 347 334 328 308 288 290 282
207 229 228 218 209 194 187 193 189 198 212 212 201 177 166 173 181 187 189 187 185 179 171 165 161 150 137 120 105 81 66 58 47 36 30 24 14 0 353 350 349 337 329 326 318 301 307 313 308
211 226 227 209 186 199 205 197 208 220 230 220 201 175 173 184 192 196 197 195 189 186 183 178 173 170 161 150 132 116 85 58 46 31 11 11 13 358 351 347 339 334 330 324 313 307 309 300 292
216 216 213 218 207 214 218 225 237 236 237 223 185 182 190 195 200 204 205 202 198 196 193 192 189 183 175 169 173 153 105 59 45 17 6 359 356 340 336 333 330 326 325 318 310 303 302 298 297
209 210 215 218 216 214 228 242 239 238 216 204 193 196 202 203 203 204 207 207 204 201 198 195 196 192 186 191 194 195 192 214 327 357 341 337 339 330 322 319 318 318 320 315 307 297 294 290 291
176 202 226 223 218 214 225 246 231 229 209 209 207 205 205 206 205 207 207 207 206 202 197 194 195 194 195 198 203 206 211 235 270 305 299 308 315 315 311 309 309 313 314 310 304 297 291 286 285
183 210 227 207 202 198 216 248 222 205 207 216 213 208 206 207 209 209 207 206 204 199 195 191 191 194 197 201 208 209 217 234 259 279 285 291 299 303 303 300 302 308 309 308 302 296 290 286 283
204 220 224 205 196 198 219 250 223 201 218 224 218 213 210 210 212 211 207 204 202 199 194 192 193 196 200 205 210 216 226 240 256 265 279 288 292 293 293 295 299 301 300 301 299 302 293 288 284
205 214 218 218 189 209 228 247 248 228 228 228 221 216 214 214 213 208 206 203 201 200 197 197 198 202 204 207 216 224 238 247 255 265 273 279 281 284 287 287 291 295 291 294 296 295 294 288 286
210 212 222 222 187 223 242 257 259 244 231 229 224 220 219 219 213 206 204 200 198 199 200 200 203 203 203 209 220 232 243 253 257 264 272 274 276 279 280 284 289 288 286 288 293 291 291 293 291
211 219 230 236 208 242 265 268 260 244 232 230 228 223 220 217 208 203 200 198 200 201 203 204 207 206 210 218 229 238 247 258 262 266 268 270 272 274 274 276 281 284 285 285 288 287 283 287 285
219 225 228 229 242 241 284 269 241 231 227 228 230 227 223 217 212 204 200 199 200 202 204 205 207 211 216 222 226 234 248 256 256 261 265 266 270 269 267 271 276 278 278 279 281 277 275 280 284
223 220 219 223 236 248 249 273 242 220 221 222 223 221 221 217 216 210 203 200 201 203 202 204 205 211 216 218 223 229 243 254 263 266 267 269 271 272 269 269 270 272 273 274 275 272 268 267 271
205 165 194 215 227 252 227 250 258 217 227 223 218 218 220 217 214 210 204 202 201 197 197 199 202 209 214 220 226 236 246 255 261 264 266 268 269 268 268 269 268 269 270 271 272 270 266 262 262
149 130 128 180 217 243 227 228 258 219 226 226 220 219 218 213 210 208 201 198 195 191 194 200 203 214 219 225 232 238 247 253 258 263 268 271 273 272 271 269 265 267 269 271 270 267 262 260 259
183 173 181 198 213 234 193 225 250 243 235 238 233 224 217 207 203 200 195 194 193 193 197 203 208 220 225 230 236 243 247 251 254 262 268 272 273 273 276 274 271 272 271 270 268 265 263 262 260
196 202 207 213 222 218 194 232 247 273 261 252 247 231 216 205 202 201 199 197 197 198 202 207 215 224 229 236 242 247 248 251 256 261 265 266 268 271 275 274 273 273 272 272 269 267 266 264 261
187 210 232 222 261 250 225 246 272 219 234 237 230 218 212 204 203 203 201 201 202 204 208 213 219 227 231 238 245 249 250 254 260 265 263 264 265 270 271 273 274 274 273 271 270 268 268 267 263
220 178 176 198 209 233 236 238 234 209 210 208 211 219 215 205 203 204 203 204 206 209 215 219 222 228 232 238 245 252 254 257 261 262 262 264 267 268 270 272 272 272 273 272 269 270 269 268 267
179 190 199 197 233 231 235 231 207 215 217 212 228 236 223 210 209 209 207 206 206 210 217 222 226 233 237 241 247 252 255 258 261 262 266 269 271 271 270 272 273 274 274 272 269 269 271 271 271
218 207 193 202 209 225 244 247 94 32 310 266 285 282 246 227 218 211 208 205 206 213 220 224 231 237 242 245 248 252 255 257 262 266 270 273 274 274 273 273 275 275 275 273 271 272 272 271 271
Height
1498 1500 1503 1506 1504 1498 1491 1488 1489 1493 1494 1497 1498 1497 1496 1497 1499 1506 1508 1506 1508 1510 1512 1512 1513 1514 1514 1514 1515 1515 1515 1515 1515 1515 1515 1515 1515 1515 1516 1516 1516 1516 1516 1516 1516 1516 1517 1517 1517
1498 1501 1505 1505 1497 1492 1488 1486 1489 1491 1495 1498 1499 1499 1499 1501 1504 1505 1505 1506 1508 1510 1512 1512 1513 1514 1514 1514 1514 1514 1514 1514 1515 1515 1515 1515 1514 1515 1515 1515 1515 1515 1515 1515 1515 1515 1515 1516 1516
1499 1501 1504 1499 1493 1486 1483 1486 1487 1494 1497 1498 1499 1500 1501 1502 1504 1505 1505 1506 1509 1510 1511 1512 1513 1513 1514 1514 1514 1514 1514 1514 1514 1513 1513 1513 1513 1513 1513 1513 1513 1513 1514 1514 1514 1513 1514 1514 1514
1500 1503 1502 1496 1489 1485 1485 1487 1491 1494 1497 1498 1498 1500 1502 1503 1504 1504 1505 1507 1509 1510 1511 1511 1512 1513 1513 1513 1513 1513 1513 1513 1512 1512 1512 1512 1512 1512 1512 1512 1512 1512 1512 1512 1512 1512 1512 1512 1513
1499 1499 1496 1492 1487 1486 1488 1491 1492 1492 1494 1496 1498 1498 1501 1502 1502 1503 1505 1507 1509 1510 1511 1511 1512 1512 1512 1512 1512 1512 1512 1512 1511 1511 1511 1511 1510 1510 1510 1510 1510 1510 1510 1510 1510 1510 1510 1511 1511
1499 1495 1490 1485 1483 1486 1489 1491 1492 1491 1493 1496 1498 1498 1501 1502 1502 1504 1505 1507 1509 1510 1510 1511 1511 1511 1511 1511 1511 1511 1510 1510 1510 1510 1509 1509 1509 1509 1509 1508 1508 1508 1508 1508 1508 1508 1508 1508 1508
1496 1492 1485 1482 1483 1485 1487 1490 1491 1490 1492 1495 1496 1497 1500 1502 1502 1503 1505 1507 1508 1509 1510 1510 1510 1510 1510 1510 1510 1509 1509 1509 1508 1508 1508 1507 1507 1507 1506 1506 1506 1506 1506 1506 1506 1506 1506 1506 1506
1494 1491 1486 1484 1483 1483 1487 1490 1491 1491 1492 1495 1496 1496 1498 1500 1501 1503 1504 1506 1507 1508 1508 1509 1509 1509 1509 1509 1508 1508 1508 1507 1507 1506 1506 1505 1505 1505 1504 1504 1504 1504 1503 1503 1503 1503 1503 1503 1503
1493 1491 1482 1481 1482 1482 1487 1489 1491 1492 1493 1494 1495 1496 1497 1498 1499 1502 1504 1505 1506 1507 1507 1508 1508 1508 1508 1507 1507 1507 1506 1506 1505 1505 1504 1504 1503 1502 1502 1502 1501 1501 1501 1501 1500 1500 1500 1500 1500
1491 1485 1479 1482 1483 1484 1487 1488 1490 1491 1491 1492 1494 1494 1495 1496 1498 1500 1502 1503 1504 1505 1506 1506 1506 1506 1506 1506 1506 1505 1505 1504 1503 1503 1502 1502 1501 1500 1500 1499 1499 1499 1498 1498 1498 1497 1498 1497 1497
1487 1482 1482 1485 1486 1486 1487 1488 1489 1489 1488 1488 1490 1492 1493 1495 1498 1499 1501 1502 1503 1504 1504 1504 1505 1505 1505 1504 1504 1504 1503 1502 1502 1501 1500 1500 1499 1498 1498 1497 1496 1496 1496 1495 1495 1494 1494 1494 1493
1485 1484 1485 1485 1486 1487 1487 1487 1488 1487 1486 1487 1489 1490 1491 1493 1495 1497 1499 1500 1501 1501 1502 1502 1503 1503 1503 1503 1502 1502 1501 1501 1500 1499 1498 1498 1497 1496 1496 1495 1494 1493 1493 1492 1492 1491 1490 1490 1490
1483 1483 1485 1486 1486 1486 1487 1486 1486 1484 1485 1486 1486 1488 1490 1491 1493 1495 1497 1498 1498 1499 1499 1500 1500 1501 1501 1501 1501 1500 1500 1499 1498 1497 1497 1496 1495 1494 1493 1492 1492 1491 1490 1489 1488 1488 1487 1486 1486
1481 1483 1484 1484 1485 1485 1485 1484 1485 1480 1482 1483 1484 1486 1487 1489 1490 1492 1493 1494 1495 1496 1497 1498 1498 1498 1499 1499 1499 1498 1498 1497 1496 1496 1495 1494 1493 1492 1491 1490 1489 1488 1487 1486 1485 1484 1483 1483 1482
1482 1482 1481 1481 1483 1483 1485 1480 1477 1477 1480 1480 1482 1483 1484 1486 1487 1488 1489 1491 1492 1493 1494 1495 1495 1496 1496 1497 1496 1496 1496 1495 1494 1493 1492 1491 1491 1490 1489 1487 1486 1485 1484 1483 1482 1481 1480 1479 1478
1481 1479 1476 1476 1479 1481 1483 1470 1470 1474 1476 1477 1478 1479 1481 1482 1484 1485 1487 1488 1489 1490 1491 1492 1493 1494 1494 1494 1494 1494 1494 1493 1492 1491 1490 1489 1488 1487 1486 1485 1484 1483 1481 1480 1479 1478 1477 1475 1474
1475 1471 1469 1472 1477 1478 1477 1467 1468 1471 1473 1473 1474 1476 1477 1479 1480 1482 1483 1484 1486 1487 1488 1489 1490 1491 1491 1492 1491 1491 1491 1490 1490 1489 1488 1487 1486 1484 1483 1482 1481 1480 1478 1477 1476 1474 1473 1472 1470
1466 1465 1467 1468 1473 1476 1473 1466 1466 1469 1470 1469 1470 1471 1473 1474 1476 1477 1479 1481 1482 1484 1485 1486 1487 1488 1489 1489 1489 1489 1488 1488 1487 1486 1485 1484 1483 1481 1480 1479 1478 1476 1475 1474 1472 1471 1469 1468 1467
1464 1465 1465 1467 1474 1474 1468 1464 1462 1463 1465 1465 1466 1467 1468 1470 1472 1474 1475 1477 1479 1480 1481 1483 1484 1485 1485 1485 1485 1485 1485 1485 1484 1483 1482 1481 1480 1478 1477 1476 1475 1473 1472 1470 1469 1467 1466 1464 1463
1466 1466 1465 1469 1474 1473 1467 1461 1457 1457 1458 1459 1460 1462 1463 1466 1468 1469 1471 1473 1474 1476 1477 1479 1480 1481 1481 1482 1482 1482 1482 1481 1480 1479 1478 1477 1476 1475 1474 1472 1471 1470 1468 1467 1465 1464 1462 1460 1460
1465 1463 1463 1467 1472 1473 1469 1454 1449 1450 1453 1455 1456 1457 1459 1461 1463 1465 1466 1468 1470 1472 1473 1474 1476 1477 1478 1478 1478 1478 1478 1477 1477 1476 1474 1473 1472 1471 1470 1469 1467 1466 1464 1462 1461 1460 1458 1457 1456
1461 1464 1467 1469 1468 1463 1467 1452 1439 1443 1447 1449 1451 1452 1453 1456 1458 1460 1461 1463 1465 1467 1469 1471 1472 1473 1474 1474 1474 1474 1474 1473 1472 1472 1471 1470 1469 1467 1466 1464 1463 1461 1460 1458 1457 1456 1454 1453 1452
1462 1466 1467 1468 1467 1467 1464 1462 1437 1440 1441 1441 1444 1447 1448 1450 1452 1454 1456 1459 1461 1464 1465 1467 1469 1469 1470 1470 1470 1470 1470 1469 1469 1468 1467 1465 1464 1463 1461 1460 1458 1457 1455 1453 1452 1451 1449 1448 1447
1466 1468 1470 1469 1466 1465 1456 1455 1435 1433 1434 1435 1439 1442 1444 1446 1448 1450 1453 1455 1457 1460 1461 1463 1464 1465 1466 1466 1466 1466 1466 1465 1464 1463 1462 1461 1459 1458 1457 1455 1454 1452 1450 1449 1447 1446 1445 1443 1442
1463 1461 1462 1463 1462 1450 1454 1452 1433 1429 1433 1434 1436 1438 1440 1442 1444 1446 1448 1450 1453 1455 1457 1459 1460 1461 1462 1462 1462 1462 1461 1461 1460 1459 1457 1456 1454 1453 1452 1450 1449 1447 1446 1444 1443 1441 1439 1438 1437
1455 1453 1451 1448 1443 1438 1455 1444 1427 1431 1433 1435 1436 1437 1438 1439 1441 1442 1444 1446 1448 1450 1452 1454 1456 1457 1457 1457 1457 1457 1457 1456 1455 1454 1453 1451 1450 1448 1447 1445 1443 1442 1441 1439 1437 1436 1434 1433 1432
1453 1451 1451 1451 1454 1446 1434 1434 1428 1429 1431 1433 1434 1434 1435 1436 1438 1439 1441 1443 1445 1447 1448 1450 1452 1453 1453 1453 1453 1453 1452 1451 1450 1449 1448 1446 1445 1443 1441 1440 1438 1437 1435 1434 1432 1430 1429 1427 1426
1451 1450 1455 1452 1446 1435 1428 1428 1420 1423 1427 1429 1431 1432 1433 1435 1436 1437 1439 1440 1442 1443 1445 1447 1448 1448 1449 1449 1449 1448 1447 1446 1445 1444 1442 1441 1439 1438 1436 1435 1433 1431 1430 1428 1426 1425 1423 1422 1420
1453 1453 1449 1446 1443 1433 1425 1420 1420 1423 1425 1427 1429 1430 1432 1433 1434 1435 1436 1438 1439 1440 1441 1443 1444 1444 1444 1444 1444 1443 1442 1441 1440 1439 1437 1436 1434 1432 1430 1429 1427 1425 1424 1422 1421 1419 1417 1416 1414
1447 1445 1446 1443 1445 1441 1428 1423 1423 1426 1427 1428 1429 1430 1431 1431 1432 1433 1434 1435 1436 1437 1438 1439 1439 1440 1439 1439 1439 1438 1437 1436 1435 1434 1432 1431 1429 1427 1425 1424 1422 1420 1418 1416 1415 1413 1411 1409 1407